[[{"header":{"parameterUnit":"m.s-1","parameterCategory":1,"la1":30.2991,"la2":30.254,"lo1":-89.0895,"lo2":-89.0444,"dy":0.0017,"dx":0.0017,"nx":28,"ny":28,"refTime":"2025-07-25T09:00:00:Z","depth":0,"parameterNumber":2,"parameterNumberName":"U-component_of_WINDS"},"data":[0,0,0,0,0,0,0,0,0,0,0,0,0,0,0,0,0,0,0,0,0,0,0,0,0,0,0,0,0,0,0,0,0,0,0,0,0,0,0,0,0,0,0,0,0,0,0,0,0,0,0,0,0,0,0,0,0,0,-0.8561,-0.8562,0,-0.8626,-0.8627,-0.8628,-0.8671,-0.8671,-0.8671,-0.8672,-0.8739,-0.874,-0.8742,0,0,0,0,0,0,0,0,0,0,0,0,0,-0.8474,-0.8475,-0.8561,-0.8562,-0.8563,-0.8626,-0.8627,-0.8628,-0.8671,-0.8671,-0.8672,-0.8672,-0.8738,-0.874,-0.8742,0,0,0,0,0,0,0,0,0,0,0,0,0,-0.8523,-0.8476,-0.8561,-0.8592,-0.8595,-0.8626,-0.8627,-0.8628,-0.8671,-0.8671,-0.8672,-0.8672,-0.8738,-0.874,-0.8742,-0.8748,0,0,-0.8749,-0.875,0,0,0,0,0,0,0,0,-0.852,-0.8526,-0.8586,-0.859,-0.8593,-0.8641,-0.8621,-0.8668,-0.8671,-0.8642,-0.8672,-0.8672,-0.8706,-0.8711,-0.8722,-0.8751,-0.8754,-0.8749,-0.8751,-0.8752,-0.8752,0,0,0,0,0,0,0,-0.8516,-0.8523,-0.8587,-0.8587,-0.8592,-0.8602,-0.861,-0.863,-0.8671,-0.8645,-0.8648,-0.8655,-0.8708,-0.872,-0.8724,-0.8755,-0.8749,-0.8751,-0.8753,-0.8754,-0.8791,-0.8791,0,0,0,0,0,0,-0.8508,-0.852,-0.8585,-0.8589,-0.8557,-0.8604,-0.8612,-0.8625,-0.8671,-0.8678,-0.8655,-0.8657,-0.8716,-0.8721,-0.8727,-0.8736,-0.8752,-0.8754,-0.8755,-0.8792,-0.8791,-0.8791,0,0,0,0,0,0,-0.8506,-0.8513,-0.8582,-0.8555,-0.8565,-0.8605,-0.8619,-0.8626,-0.8638,-0.8678,-0.8686,-0.8659,-0.8716,-0.8723,-0.8742,-0.8739,-0.8755,-0.8757,-0.8792,-0.8791,-0.8791,-0.8755,0,0,0,0,0,0,-0.8503,-0.8512,-0.8515,-0.8555,-0.8566,-0.8596,-0.8619,-0.8627,-0.8642,-0.8646,-0.8685,-0.8691,-0.8717,-0.8739,-0.8744,-0.8743,-0.8759,-0.8793,-0.8792,-0.8791,-0.8757,-0.8753,-0.8751,0,0,0,0,0,-0.85,-0.8502,-0.8515,-0.8522,-0.857,-0.8596,-0.8603,-0.8632,-0.8642,-0.8645,-0.867,-0.869,-0.8738,-0.874,-0.8747,-0.8746,-0.8793,-0.8792,-0.8791,-0.8758,-0.8754,-0.8751,0,0,0,0,0,0,-0.8461,-0.8508,-0.8523,-0.8538,-0.8563,-0.8603,-0.8608,-0.8627,-0.865,-0.8652,-0.8688,-0.8696,-0.8711,-0.873,-0.8731,-0.8754,-0.8768,-0.8769,-0.874,-0.8737,-0.8734,-0.8729,-0.8761,0,0,0,0,0,-0.8454,-0.8471,-0.8511,-0.8521,-0.8533,-0.8568,-0.8581,-0.8601,-0.8628,-0.8639,-0.8666,-0.8692,-0.8713,-0.8726,-0.8747,-0.876,-0.8769,-0.8762,-0.8759,-0.8756,-0.8757,-0.8764,-0.8762,-0.8788,-0.8788,-0.8788,0,0,-0.844,-0.8468,-0.8477,-0.8514,-0.8536,-0.8553,-0.8577,-0.8594,-0.8607,-0.8642,-0.8661,-0.8682,-0.8713,-0.8728,-0.8737,-0.8745,-0.8751,-0.8755,-0.8753,-0.8755,-0.8763,-0.8761,-0.8759,-0.8788,-0.8788,-0.8788,0,0,-0.8423,-0.8446,-0.8457,-0.8478,-0.851,-0.8533,-0.8536,-0.8574,-0.8589,-0.8609,-0.8635,-0.8651,-0.8687,-0.8708,-0.8723,-0.8714,-0.8733,-0.872,-0.8704,-0.8711,-0.8709,-0.8707,-0.8704,-0.8703,-0.872,-0.872,-0.872,0,-0.8402,-0.8429,-0.846,-0.8475,-0.8491,-0.8523,-0.8534,-0.8553,-0.8591,-0.8601,-0.8609,-0.8654,-0.8678,-0.8698,-0.8696,-0.8707,-0.8711,-0.8716,-0.8707,-0.8705,-0.8704,-0.8702,-0.8701,-0.8718,-0.8718,-0.8718,-0.8718,0,-0.8401,-0.8419,-0.8424,-0.8459,-0.8475,-0.8488,-0.8521,-0.8534,-0.8553,-0.8575,-0.8595,-0.8624,-0.8652,-0.8658,-0.8677,-0.8682,-0.8686,-0.87,-0.8715,-0.87,-0.8698,-0.8697,-0.8715,-0.8716,-0.8716,-0.8717,0,0,-0.8362,-0.8414,-0.8415,-0.8432,-0.847,-0.8484,-0.8499,-0.8526,-0.8536,-0.8561,-0.8574,-0.8603,-0.8616,-0.8634,-0.8655,-0.8661,-0.8652,-0.8675,-0.8676,-0.867,-0.8659,-0.8648,-0.8647,-0.8665,-0.8665,-0.8665,-0.8657,0,-0.8352,-0.8379,-0.8407,-0.8425,-0.8442,-0.8472,-0.8485,-0.851,-0.8531,-0.8548,-0.8572,-0.8592,-0.8608,-0.8619,-0.8626,-0.8652,-0.8651,-0.8653,-0.8678,-0.8678,-0.8669,-0.8646,-0.8635,-0.8626,-0.8656,-0.8656,-0.8656,0,-0.8343,-0.8366,-0.8385,-0.8421,-0.843,-0.844,-0.8468,-0.8484,-0.8512,-0.8527,-0.8546,-0.8569,-0.8586,-0.8598,-0.8622,-0.8623,-0.8635,-0.8648,-0.8649,-0.8653,-0.8666,-0.8649,-0.8624,-0.8622,-0.8655,-0.8655,-0.8655,0,-0.8313,-0.8349,-0.8365,-0.8378,-0.8421,-0.8427,-0.8445,-0.8474,-0.8489,-0.8512,-0.8522,-0.8547,-0.8561,-0.858,-0.8608,-0.8615,-0.8629,-0.8644,-0.8642,-0.8641,-0.8644,-0.8644,-0.862,-0.8651,-0.8651,-0.8651,-0.8651,0,-0.8299,-0.8309,-0.8352,-0.8362,-0.8375,-0.8407,-0.8419,-0.844,-0.8465,-0.848,-0.8507,-0.852,-0.8557,-0.8575,-0.8597,-0.8613,-0.8619,-0.8632,-0.8638,-0.863,-0.8628,-0.8638,-0.864,-0.8651,-0.8651,-0.8651,-0.8651,0,-0.8268,-0.8297,-0.8317,-0.8355,-0.8365,-0.8372,-0.8405,-0.8416,-0.8439,-0.8457,-0.8463,-0.8498,-0.852,-0.855,-0.8582,-0.8597,-0.861,-0.8619,-0.86,-0.8604,-0.86,-0.86,-0.8583,-0.8582,-0.8613,-0.8612,-0.8612,0,-0.8257,-0.8266,-0.8305,-0.8316,-0.8333,-0.8352,-0.8367,-0.8398,-0.8412,-0.8445,-0.8452,-0.8476,-0.8497,-0.8531,-0.8559,-0.8583,-0.8593,-0.8585,-0.8597,-0.8589,-0.8594,-0.8593,-0.8594,-0.8583,-0.8582,-0.8582,-0.8582,0,-0.8235,-0.8249,-0.8269,-0.8293,-0.831,-0.8331,-0.8354,-0.8362,-0.8398,-0.8413,-0.8436,-0.8452,-0.8483,-0.8507,-0.8535,-0.8553,-0.8573,-0.8577,-0.8578,-0.857,-0.8559,-0.8565,-0.8593,-0.8578,-0.8578,-0.8579,-0.8579,-0.8579,-0.8214,-0.8223,-0.8252,-0.8273,-0.8293,-0.8314,-0.8326,-0.8349,-0.8369,-0.8397,-0.8414,-0.8436,-0.8464,-0.8503,-0.8521,-0.8539,-0.8547,-0.8548,-0.8548,-0.8548,-0.8545,-0.8556,-0.8544,-0.8544,-0.8544,-0.8544,-0.8544,0,-0.8194,-0.8213,-0.8233,-0.8263,-0.828,-0.8297,-0.8322,-0.8335,-0.8354,-0.8378,-0.8398,-0.8424,-0.8447,-0.8477,-0.8502,-0.851,-0.852,-0.8515,-0.8515,-0.8519,-0.8537,-0.8534,-0.8507,-0.8507,-0.8507,-0.8507,-0.8507,-0.8507,-0.8185,-0.8202,-0.8219,-0.8245,-0.8265,-0.8287,-0.83,-0.8318,-0.8338,-0.8365,-0.8384,-0.8404,-0.843,-0.8457,-0.8479,-0.8487,-0.8495,-0.8488,-0.8499,-0.8515,-0.8518,-0.8521,-0.8519,-0.8489,-0.8489,-0.848,-0.848,-0.848]},{"header":{"parameterUnit":"m.s-1","parameterCategory":1,"la1":30.2991,"la2":30.254,"lo1":-89.0895,"lo2":-89.0444,"dy":0.0017,"dx":0.0017,"nx":28,"ny":28,"refTime":"2025-07-25T09:00:00:Z","depth":0,"parameterNumber":3,"parameterNumberName":"V-component_of_WINDS"},"data":[0,0,0,0,0,0,0,0,0,0,0,0,0,0,0,0,0,0,0,0,0,0,0,0,0,0,0,0,0,0,0,0,0,0,0,0,0,0,0,0,0,0,0,0,0,0,0,0,0,0,0,0,0,0,0,0,0,0,5.8721,5.8722,0,5.881,5.8811,5.8812,5.8733,5.873,5.8727,5.8724,5.8809,5.8814,5.882,0,0,0,0,0,0,0,0,0,0,0,0,0,5.8475,5.848,5.8721,5.8722,5.8723,5.881,5.8811,5.8812,5.8734,5.873,5.8726,5.8722,5.8807,5.8814,5.882,0,0,0,0,0,0,0,0,0,0,0,0,0,5.8574,5.8481,5.872,5.8694,5.8693,5.881,5.8811,5.8813,5.8734,5.873,5.8725,5.872,5.8805,5.8813,5.8821,5.8966,0,0,5.8845,5.8848,0,0,0,0,0,0,0,0,5.8569,5.8583,5.8697,5.8696,5.8695,5.8756,5.8756,5.8864,5.8736,5.8718,5.8724,5.8718,5.8795,5.8803,5.883,5.897,5.8974,5.8846,5.8851,5.8854,5.8856,0,0,0,0,0,0,0,5.8562,5.8579,5.8756,5.8699,5.8697,5.8676,5.8684,5.8776,5.8782,5.872,5.8714,5.8726,5.8793,5.8823,5.8832,5.8975,5.8846,5.8853,5.8857,5.8861,5.9235,5.924,0,0,0,0,0,0,5.8559,5.8574,5.8753,5.8758,5.8619,5.8684,5.8694,5.8741,5.8781,5.8783,5.873,5.8722,5.8812,5.8823,5.8835,5.9004,5.8854,5.8861,5.8866,5.9229,5.9236,5.9241,0,0,0,0,0,0,5.8554,5.8575,5.8749,5.8665,5.8685,5.8693,5.8747,5.8745,5.8775,5.8789,5.8789,5.876,5.8809,5.8823,5.8934,5.9006,5.8865,5.8872,5.9223,5.9231,5.9239,5.9347,0,0,0,0,0,0,5.8547,5.8574,5.8631,5.8667,5.869,5.8849,5.8751,5.875,5.8789,5.878,5.8817,5.8819,5.8806,5.8922,5.8942,5.9015,5.8878,5.9217,5.9227,5.9236,5.9337,5.9358,5.9376,0,0,0,0,0,5.8539,5.8658,5.8635,5.8657,5.8762,5.8854,5.8867,5.8851,5.8796,5.8851,5.886,5.8817,5.8996,5.8934,5.8955,5.9032,5.9212,5.9224,5.9235,5.9329,5.9354,5.9375,0,0,0,0,0,0,5.8629,5.8662,5.8637,5.8771,5.8811,5.884,5.891,5.8879,5.8933,5.8922,5.8899,5.8908,5.9023,5.9039,5.897,5.9173,5.9095,5.9111,5.9158,5.9182,5.9201,5.9193,5.8885,0,0,0,0,0,5.8665,5.8739,5.8763,5.8879,5.89,5.8903,5.8942,5.8927,5.8965,5.8981,5.8998,5.9036,5.9099,5.9142,5.9202,5.934,5.9345,5.9403,5.9422,5.9438,5.9451,5.9521,5.9546,5.928,5.928,5.9279,0,0,5.8739,5.8766,5.8814,5.8898,5.8927,5.9001,5.8917,5.9,5.9053,5.8993,5.9097,5.9112,5.9152,5.9275,5.9331,5.9292,5.9526,5.9452,5.9465,5.947,5.9536,5.9561,5.9584,5.9288,5.9286,5.9285,0,0,5.8912,5.8942,5.904,5.9071,5.9116,5.9116,5.914,5.9175,5.9182,5.9287,5.9242,5.9305,5.9417,5.9447,5.9476,5.9659,5.962,5.9679,5.9778,5.9847,5.9868,5.9886,5.9948,5.9971,5.9693,5.9694,5.9694,0,5.8998,5.911,5.9095,5.918,5.9217,5.9168,5.9265,5.9295,5.9357,5.9382,5.9338,5.9476,5.95,5.9628,5.9673,5.97,5.9723,5.9674,5.9867,5.9885,5.9902,5.996,5.9984,5.97,5.97,5.9699,5.9698,0,5.9212,5.929,5.9364,5.9426,5.9471,5.9563,5.9558,5.9606,5.9587,5.9591,5.9697,5.9724,5.9787,5.9817,5.9799,5.9942,5.9916,5.9871,5.9791,5.9934,5.9989,6.0011,5.971,5.9707,5.9705,5.9704,0,0,5.9442,5.9495,5.9522,5.9548,5.9593,5.9652,5.974,5.9804,5.9843,5.9887,5.9958,6.0054,6.0011,6.0045,6.0029,6.0091,6.0229,6.0036,6.0037,6.0068,6.0384,6.0416,6.0443,6.0205,6.0209,6.0213,6.038,0,5.9614,5.9769,5.9757,5.9902,5.9972,5.9926,6.0002,6.0036,6.0043,6.0101,6.0107,6.0174,6.0115,6.0134,6.0193,6.02,6.0292,6.0188,6.0267,6.027,6.0255,6.0472,6.0506,6.0663,6.0401,6.0405,6.0408,0,5.9835,5.9888,6.004,6.0073,6.0101,6.0171,6.0226,6.0284,6.0321,6.0321,6.0359,6.0333,6.0418,6.0339,6.0455,6.0385,6.0416,6.0425,6.043,6.0434,6.0345,6.0478,6.0713,6.0735,6.0442,6.0439,6.0437,0,5.9984,6.0093,6.0197,6.0221,6.0263,6.0312,6.0331,6.0364,6.0402,6.0451,6.0474,6.0532,6.0563,6.0607,6.0596,6.054,6.0713,6.0633,6.0712,6.0712,6.0748,6.0745,6.0987,6.0774,6.0774,6.0774,6.0773,0,6.0175,6.0269,6.0264,6.0328,6.0431,6.0415,6.0517,6.053,6.056,6.0623,6.0587,6.0647,6.063,6.0689,6.0681,6.0776,6.0791,6.0791,6.0787,6.0792,6.0792,6.081,6.0798,6.078,6.0778,6.0777,6.0776,0,6.0357,6.0358,6.0468,6.0499,6.0509,6.0583,6.0608,6.0667,6.067,6.0751,6.0769,6.0773,6.084,6.0835,6.091,6.0904,6.102,6.1005,6.1008,6.1004,6.1081,6.1073,6.1341,6.1374,6.1143,6.1145,6.1147,0,6.0478,6.0549,6.0587,6.0628,6.0651,6.0717,6.0756,6.0743,6.0784,6.0831,6.0884,6.0948,6.0998,6.1106,6.1115,6.1171,6.1155,6.1245,6.1163,6.1165,6.1152,6.1147,6.1152,6.126,6.1263,6.1265,6.1267,0,6.069,6.0686,6.0745,6.0804,6.0851,6.0896,6.0937,6.0972,6.0963,6.1011,6.1079,6.1118,6.1195,6.1258,6.1311,6.1328,6.1295,6.1293,6.1313,6.1318,6.1315,6.1314,6.1049,6.1286,6.1284,6.1283,6.1282,6.1281,6.0842,6.0902,6.0938,6.1004,6.1034,6.1072,6.1128,6.1139,6.1197,6.1259,6.1248,6.1324,6.1357,6.1425,6.1448,6.1505,6.1472,6.1503,6.151,6.1517,6.1524,6.1309,6.1515,6.1515,6.1514,6.1514,6.1513,0,6.105,6.1071,6.1131,6.119,6.1241,6.1208,6.1251,6.1295,6.1363,6.1398,6.1448,6.1525,6.1586,6.1599,6.1656,6.1699,6.1685,6.1715,6.1709,6.1713,6.1552,6.1527,6.1725,6.1725,6.1725,6.1725,6.1725,6.1724,6.1163,6.1262,6.1263,6.1375,6.1395,6.1471,6.1497,6.1532,6.1559,6.1648,6.1698,6.1707,6.1732,6.1791,6.1844,6.1846,6.1867,6.1902,6.1898,6.1746,6.1725,6.1705,6.1681,6.1907,6.1908,6.2053,6.2054,6.2055]}]]